FW4468 Weather Reports


time (UTC)temp
F
wind
direction
speed
knots
gust
knots
rain 1hr
in
rain 24hr
in
rain mn
in
humidity
%
barometer
mb
20260904141503 51 198 0.0 0.0 0.00 0.00 0.00 78 1011.9
20260904140002 51 198 0.0 0.0 0.00 0.01 0.00 78 1011.9
20260904134600 51 198 0.0 0.0 0.00 0.01 0.00 78 1011.6
20260904133057 51 198 0.0 0.0 0.00 0.01 0.00 77 1011.3
20260904131629 51 198 0.0 0.0 0.00 0.01 0.00 77 1011.0
20260904130054 51 198 0.0 0.0 0.00 0.01 0.00 76 1010.9
20260904124553 51 198 0.0 0.0 0.00 0.01 0.00 76 1010.9
20260904123106 51 198 0.0 0.9 0.00 0.01 0.00 75 1011.0
20260904121551 51 198 0.0 0.0 0.00 0.01 0.00 73 1010.8
20260904120049 51 198 0.0 0.9 0.00 0.01 0.00 72 1010.8
20260904114547 51 198 0.0 0.0 0.00 0.02 0.00 71 1010.6
20260904113046 51 198 0.0 0.0 0.00 0.02 0.00 70 1010.6
20260904111552 51 198 0.0 0.0 0.00 0.02 0.00 69 1010.6
20260904110045 52 198 0.0 0.0 0.00 0.02 0.00 69 1010.7
20260904104540 52 198 0.0 0.0 0.00 0.04 0.00 69 1010.5
20260904103042 52 198 0.0 0.0 0.00 0.04 0.00 68 1010.4
20260904101544 52 198 0.0 0.0 0.00 0.04 0.00 69 1010.2
20260904100036 53 198 0.0 0.9 0.00 0.04 0.00 68 1010.2
20260904094538 53 198 0.0 0.0 0.00 0.04 0.00 68 1010.2
20260904093035 53 198 0.0 0.0 0.00 0.04 0.00 68 1010.1
20260904091535 53 199 0.0 0.0 0.00 0.04 0.00 67 1010.0
20260904090033 53 199 0.0 0.0 0.00 0.04 0.00 68 1010.3
20260904084531 53 199 0.0 0.0 0.00 0.04 0.00 68 1010.4
20260904083029 53 199 0.0 0.0 0.00 0.04 0.00 68 1010.5
20260904081525 53 198 0.0 0.0 0.00 0.04 0.00 68 1010.6
20260904080021 53 198 0.0 0.0 0.00 0.04 0.00 68 1010.5
20260904074521 53 198 0.0 0.0 0.00 0.04 0.00 68 1010.5
20260904073016 53 198 0.0 0.0 0.00 0.04 0.00 68 1010.4
20260904071527 53 198 0.0 0.0 0.00 0.04 0.00 68 1010.2
20260904070004 53 198 0.0 0.0 0.00 0.04 0.04 68 1010.2
20260904064502 53 198 0.0 0.0 0.00 0.04 0.04 68 1010.2
20260904063002 53 198 0.0 0.0 0.00 0.04 0.04 68 1010.1
20260904061603 53 198 0.0 0.0 0.00 0.04 0.04 68 1010.0
20260904061502 53 198 0.0 0.0 0.00 0.04 0.04 68 1009.9
20260904060113 53 198 0.0 0.0 0.00 0.04 0.04 67 1010.0
20260904054601 54 198 0.0 0.0 0.00 0.04 0.04 66 1009.9
20260904053057 55 198 0.0 0.0 0.00 0.04 0.04 65 1009.9
20260904051557 56 198 0.0 0.0 0.00 0.04 0.04 64 1010.1
20260904050055 57 198 0.0 1.7 0.00 0.04 0.04 62 1009.9
20260904044558 56 198 0.9 3.5 0.00 0.04 0.04 63 1010.1
20260904043054 56 202 0.0 0.9 0.00 0.04 0.04 64 1010.0
20260904041553 57 202 0.0 0.9 0.00 0.04 0.04 63 1010.0
20260904040053 57 202 0.0 3.5 0.00 0.04 0.04 62 1009.9
20260904034600 57 150 0.0 0.9 0.00 0.04 0.04 61 1009.8
20260904033048 58 173 0.0 0.0 0.00 0.04 0.04 59 1009.4
20260904031548 59 173 0.0 0.0 0.00 0.04 0.04 57 1009.2
20260904030048 60 173 0.0 2.6 0.00 0.04 0.04 56 1009.2
20260904024547 61 182 0.0 0.9 0.00 0.04 0.04 55 1009.1
20260904023045 62 182 0.0 0.9 0.00 0.04 0.04 54 1008.9
20260904021548 62 182 0.9 2.6 0.00 0.04 0.04 52 1008.8
20260904020045 63 209 0.0 2.6 0.00 0.04 0.04 52 1008.8
20260904014547 63 184 0.9 3.5 0.00 0.04 0.04 52 1008.8
20260904013043 63 222 0.0 2.6 0.00 0.04 0.04 54 1008.8
20260904011544 64 255 0.9 4.3 0.00 0.04 0.04 53 1008.8
20260904010051 64 229 0.9 3.5 0.00 0.04 0.04 53 1008.9
20260904004556 64 244 0.0 4.3 0.00 0.04 0.04 53 1008.7
20260904003042 65 262 1.7 7.8 0.00 0.04 0.04 51 1008.7
20260904001540 66 182 1.7 7.0 0.00 0.04 0.04 50 1008.8
20260904000056 66 238 0.0 7.0 0.00 0.04 0.04 51 1008.6
20260903234543 66 127 0.9 5.2 0.00 0.06 0.04 50 1008.7
20260903233038 66 136 0.0 4.3 0.00 0.06 0.04 49 1008.6
20260903231538 65 141 1.7 6.1 0.00 0.06 0.04 50 1008.7
20260903230137 65 178 2.6 7.8 0.00 0.06 0.04 48 1008.7
20260903224538 65 202 1.7 4.3 0.00 0.16 0.04 50 1008.8
20260903223041 65 253 0.0 4.3 0.00 0.16 0.04 53 1008.9
20260903221534 64 199 1.7 6.1 0.00 0.16 0.04 52 1008.9
20260903220040 65 169 2.6 7.0 0.00 0.16 0.04 53 1008.9
20260903214535 65 182 1.7 5.2 0.00 0.20 0.04 53 1008.7
20260903213037 66 180 0.0 4.3 0.00 0.20 0.04 53 1008.7
20260903211555 65 163 2.6 6.1 0.00 0.20 0.04 55 1008.7
20260903210026 64 173 1.7 8.7 0.00 0.20 0.04 54 1008.8
20260903204525 64 191 1.7 4.3 0.00 0.20 0.04 56 1008.7
20260903203023 64 203 0.9 7.8 0.00 0.20 0.04 56 1008.7
20260903201522 64 261 1.7 4.3 0.00 0.20 0.04 56 1008.7
20260903200020 63 216 0.0 6.1 0.00 0.20 0.04 60 1008.8
20260903194518 63 246 1.7 7.0 0.00 0.25 0.04 61 1008.8
20260903193016 62 214 1.7 7.0 0.00 0.25 0.04 59 1008.7
20260903191518 62 254 1.7 6.1 0.00 0.25 0.04 62 1008.6
20260903190015 61 279 1.7 7.8 0.00 0.25 0.04 61 1008.6
20260903184514 61 239 0.9 7.8 0.00 0.25 0.04 62 1008.7
20260903183013 62 240 0.0 7.0 0.00 0.25 0.04 62 1008.6
20260903181511 60 274 1.7 10.4 0.00 0.25 0.04 63 1008.6
20260903180007 60 240 1.7 8.7 0.00 0.25 0.04 63 1008.6
20260903174515 59 162 1.7 8.7 0.00 0.25 0.04 64 1008.4
20260903173005 58 182 1.7 10.4 0.00 0.25 0.04 64 1008.4
20260903171603 58 145 2.6 8.7 0.00 0.25 0.04 64 1008.5
20260903170111 58 121 0.0 5.2 0.00 0.25 0.04 66 1008.3
20260903164559 58 153 0.9 6.1 0.00 0.25 0.04 66 1008.1
20260903163056 58 158 0.0 8.7 0.00 0.25 0.04 66 1008.1
20260903161553 57 84 0.0 2.6 0.00 0.25 0.04 67 1008.2
20260903160050 56 166 0.0 4.3 0.00 0.25 0.04 68 1008.1
20260903154555 56 290 0.0 5.2 0.00 0.25 0.04 71 1008.1
20260903153053 55 46 0.0 2.6 0.00 0.25 0.04 72 1008.1
20260903151553 54 248 0.0 4.3 0.00 0.25 0.04 73 1008.1
20260903150052 54 133 0.0 2.6 0.00 0.25 0.04 73 1008.2
20260903144548 54 111 0.0 3.5 0.00 0.25 0.04 73 1008.0
20260903143045 54 159 0.0 2.6 0.00 0.25 0.04 72 1007.9